User: anonymous   Login
Location: Unspecified
(0.0000°N, 0.0000°E)
Time: 16:37:32
(UTC+00:00)
Language:

GONETS M 10 (M20) - Orbit

View from above orbital plane
View from above orbital plane
View from above satellite
View from above satellite

Ground track
Ground track

The orbit data is extracted from the following two-line orbital elements,

1 40063U 14036C   17204.92458175 +.00000010 +00000-0 +00000-0 0  9993
2 40063 082.5093 166.2513 0022618 030.7975 329.4431 12.42895410138684
Epoch (UTC): 23 July 2017 22:11:23
Eccentricity: 0.0022618
inclination: 82.5093°
perigee height: 1476 km
apogee height: 1512 km
right ascension of ascending node: 166.2513°
argument of perigee: 30.7975°
revolutions per day: 12.42895410
mean anomaly at epoch: 329.4431°
orbit number at epoch: 13868

The dashed part of the orbit path shows where the satellite is in the earth's shadow,  

DLR